Location: Tehachapi Municipal Airport
(35.1300°N, 118.4400°W)
Time: 13:39:49
(UTC-07:00)

BREEZE M DEB (TANK) - Visible Passes

Search period start: 25 October 2014 00:00
Search period end: 03 November 2014 23:00
Orbit: 308 x 12185 km, 49.5° (Epoch: 24 October)

Date Brightness Start Highest point End Pass type
(mag) Time Alt. Az. Time Alt. Az. Time Alt. Az.
25 Oct 5.1 20:25:32 10° WSW 21:01:15 66° NW 21:04:36 46° NNE visible
26 Oct 5.3 19:49:45 10° SW 20:31:21 75° NW 20:36:20 37° NE visible
27 Oct 5.5 19:13:58 10° SW 20:01:19 84° NW 20:08:01 28° NE visible
28 Oct 5.8 18:38:26 10° SW 19:31:07 87° SE 19:39:41 19° NE visible
28 Oct 6.7 23:33:20 10° WNW 23:34:58 13° NW 23:34:58 13° NW visible
29 Oct 6.0 18:03:18 10° SSW 19:00:43 79° SE 19:11:19 12° NE visible
29 Oct 6.4 23:00:57 10° WNW 23:06:35 19° NW 23:06:35 19° NW visible
30 Oct 6.2 17:28:44 10° SSW 18:30:06 71° SE 18:42:16 10° ENE visible
30 Oct 6.1 22:27:52 10° WNW 22:38:11 26° NW 22:38:11 26° NW visible
31 Oct 5.8 21:53:58 10° W 22:09:45 33° NNW 22:09:45 33° NNW visible
01 Nov 5.5 21:19:13 10° W 21:40:20 39° NNW 21:41:17 38° NNW visible
02 Nov 5.3 19:43:34 10° WSW 20:10:18 45° NNW 20:12:48 39° N visible
03 Nov 5.3 19:07:09 10° WSW 19:40:12 52° NW 19:44:17 35° NNE visible
